Location: Schommer Observatory
(40.5200°N, 74.4500°W)
Time: 02:34:56
(UTC-04:00)

N. Korean satellite - Pass Details

Date: 11 October 2017
Orbit: 459 x 517 km, 97.2° (Epoch: 21 October)

Event Time Altitude Azimuth Distance (km) Brightness Sun altitude
Rises 18:58:42 0° 166° (SSE) 2,564 10.1 -7.5°
Reaches altitude 10° 19:00:47 10° 166° (SSE) 1,677 9.2 -7.9°
Maximum altitude 19:04:23 87° 79° (E) 491 6.5 -8.6°
Drops below altitude 10° 19:07:57 10° 349° (N) 1,658 9.4 -9.3°
Sets 19:10:00 0° 349° (N) 2,532 10.3 -9.6°
